[[{"header":{"parameterUnit":"m.s-1","parameterCategory":1,"la1":30.2991,"la2":30.254,"lo1":-89.0895,"lo2":-89.0444,"dy":0.0017,"dx":0.0017,"nx":28,"ny":28,"refTime":"2024-06-29T21:00:00:Z","depth":0,"parameterNumber":2,"parameterNumberName":"U-component_of_WINDS"},"data":[0,0,0,0,0,0,0,0,0,0,0,0,0,0,0,0,0,0,0,0,0,0,0,0,0,0,0,0,0,0,0,0,0,0,0,0,0,0,0,0,0,0,0,0,0,0,0,0,0,0,0,0,0,0,0,0,0,0,0.0237,0.0237,0,0.0281,0.0282,0.0282,0.03,0.0299,0.0299,0.0299,0.0344,0.0346,0.0347,0,0,0,0,0,0,0,0,0,0,0,0,0,0.0164,0.0166,0.0237,0.0237,0.0238,0.0281,0.0282,0.0283,0.03,0.0299,0.0299,0.0299,0.0344,0.0346,0.0347,0,0,0,0,0,0,0,0,0,0,0,0,0,0.0201,0.0166,0.0237,0.0252,0.0253,0.0281,0.0282,0.0283,0.03,0.0299,0.0299,0.0299,0.0344,0.0345,0.0347,0.0363,0,0,0.0353,0.0354,0,0,0,0,0,0,0,0,0.0199,0.0204,0.0249,0.0251,0.0253,0.0285,0.0273,0.031,0.03,0.0282,0.0299,0.0299,0.0325,0.0328,0.0337,0.0366,0.0368,0.0354,0.0355,0.0356,0.0356,0,0,0,0,0,0,0,0.0196,0.0202,0.0254,0.025,0.0252,0.0255,0.026,0.028,0.0304,0.0284,0.0285,0.029,0.0326,0.0335,0.0338,0.0368,0.0354,0.0355,0.0357,0.0357,0.041,0.041,0,0,0,0,0,0,0.0192,0.02,0.0253,0.0256,0.0225,0.0257,0.0263,0.0275,0.0304,0.0308,0.029,0.0291,0.0332,0.0336,0.034,0.0359,0.0356,0.0358,0.0359,0.041,0.041,0.041,0,0,0,0,0,0,0.019,0.0196,0.0251,0.0228,0.0235,0.0258,0.0272,0.0276,0.0285,0.0309,0.0313,0.0295,0.0332,0.0337,0.0357,0.0361,0.0358,0.036,0.0409,0.041,0.041,0.0399,0,0,0,0,0,0,0.0188,0.0195,0.0203,0.0228,0.0237,0.0268,0.0272,0.0277,0.0288,0.029,0.0315,0.0319,0.0332,0.0354,0.0359,0.0364,0.0362,0.0409,0.041,0.041,0.0399,0.0399,0.0399,0,0,0,0,0,0.0185,0.0198,0.0203,0.0209,0.0246,0.0269,0.0273,0.0288,0.0289,0.0295,0.031,0.0318,0.036,0.0356,0.0362,0.0367,0.0409,0.0409,0.041,0.0399,0.0399,0.0399,0,0,0,0,0,0,0.0173,0.0202,0.0207,0.0229,0.0246,0.0271,0.0281,0.0288,0.0305,0.0306,0.0323,0.0329,0.0347,0.0359,0.0354,0.0383,0.0385,0.0386,0.0375,0.0375,0.0375,0.0371,0.0363,0,0,0,0,0,0.0172,0.0189,0.0213,0.023,0.0238,0.0258,0.0268,0.0278,0.0296,0.0304,0.032,0.0337,0.0354,0.0365,0.0382,0.0401,0.0406,0.0407,0.0407,0.0407,0.0408,0.0417,0.0418,0.0412,0.0412,0.0412,0,0,0.0172,0.019,0.0199,0.0228,0.0242,0.0258,0.0264,0.0281,0.0292,0.0306,0.0326,0.0338,0.0359,0.0377,0.0387,0.0388,0.0411,0.0407,0.0407,0.0409,0.0418,0.0418,0.0419,0.0412,0.0412,0.0412,0,0,0.018,0.0195,0.021,0.0224,0.0245,0.0258,0.0261,0.0285,0.0294,0.0314,0.0324,0.0338,0.0367,0.038,0.0391,0.0401,0.0408,0.0406,0.0405,0.0414,0.0414,0.0415,0.0417,0.0418,0.0407,0.0407,0.0407,0,0.0177,0.0201,0.0217,0.0233,0.0244,0.0257,0.0271,0.0284,0.031,0.0317,0.0318,0.0354,0.0368,0.039,0.0392,0.0401,0.0404,0.0403,0.0413,0.0414,0.0414,0.0417,0.0418,0.0406,0.0407,0.0407,0.0407,0,0.0196,0.0213,0.0222,0.0246,0.0258,0.0274,0.029,0.0301,0.0309,0.0321,0.034,0.0358,0.0378,0.0383,0.0392,0.0406,0.0406,0.041,0.0412,0.0414,0.0417,0.0418,0.0406,0.0406,0.0406,0.0406,0,0,0.0198,0.0229,0.0232,0.0243,0.0266,0.0279,0.0294,0.0313,0.0321,0.0338,0.035,0.0373,0.0377,0.0389,0.0399,0.0406,0.0411,0.0409,0.041,0.0408,0.0426,0.0423,0.0424,0.0416,0.0416,0.0417,0.0424,0,0.0208,0.0236,0.0249,0.0271,0.0285,0.0297,0.0309,0.0324,0.0336,0.0349,0.0361,0.0377,0.0381,0.0388,0.0396,0.0409,0.0415,0.0409,0.0427,0.0427,0.0422,0.0425,0.0423,0.0429,0.0425,0.0426,0.0426,0,0.0225,0.024,0.0263,0.0283,0.029,0.0301,0.0319,0.0332,0.0349,0.0356,0.0368,0.0378,0.0393,0.0393,0.0413,0.0408,0.0416,0.0424,0.0424,0.0427,0.0427,0.0427,0.0431,0.0432,0.0428,0.0428,0.0427,0,0.0223,0.025,0.0267,0.0275,0.03,0.0307,0.0317,0.0334,0.0344,0.0359,0.0365,0.0382,0.0391,0.0404,0.0416,0.0416,0.0435,0.0437,0.0441,0.044,0.0445,0.0444,0.045,0.045,0.045,0.045,0.045,0,0.0233,0.0246,0.0266,0.0277,0.0291,0.0305,0.0319,0.033,0.0344,0.0356,0.0367,0.0378,0.0394,0.0407,0.0417,0.0431,0.0436,0.0441,0.0444,0.044,0.044,0.0446,0.0446,0.045,0.045,0.045,0.045,0,0.0234,0.0248,0.0267,0.0287,0.0293,0.0302,0.032,0.033,0.034,0.0355,0.0359,0.0377,0.0392,0.0406,0.0426,0.0433,0.0447,0.045,0.0441,0.0443,0.0446,0.0445,0.0455,0.0457,0.0456,0.0456,0.0456,0,0.0239,0.025,0.0271,0.0279,0.0289,0.0303,0.0313,0.0327,0.0337,0.0356,0.0363,0.0379,0.0392,0.0415,0.0429,0.0444,0.0448,0.045,0.045,0.0446,0.0447,0.0447,0.0447,0.045,0.045,0.045,0.045,0,0.0247,0.0253,0.0267,0.0283,0.0294,0.0308,0.0321,0.0328,0.0344,0.0354,0.0369,0.038,0.04,0.0415,0.0431,0.0441,0.0448,0.045,0.0452,0.0448,0.0442,0.0445,0.044,0.045,0.045,0.045,0.045,0.045,0.025,0.0259,0.0275,0.029,0.0301,0.0313,0.0323,0.0334,0.0348,0.0365,0.0372,0.0387,0.0402,0.0424,0.0434,0.0446,0.0447,0.045,0.045,0.0451,0.045,0.044,0.0449,0.0449,0.0449,0.0449,0.0449,0,0.0258,0.0268,0.0281,0.03,0.0311,0.0316,0.0331,0.034,0.0353,0.0366,0.0379,0.0395,0.041,0.0424,0.0439,0.0445,0.0448,0.0448,0.0448,0.045,0.0448,0.0445,0.0445,0.0445,0.0445,0.0445,0.0445,0.0445,0.0263,0.0278,0.0286,0.0306,0.0316,0.0331,0.0339,0.0349,0.036,0.0378,0.039,0.0399,0.0412,0.0428,0.044,0.0444,0.0449,0.0448,0.0452,0.045,0.045,0.0451,0.0448,0.0449,0.0449,0.0454,0.0454,0.0454]},{"header":{"parameterUnit":"m.s-1","parameterCategory":1,"la1":30.2991,"la2":30.254,"lo1":-89.0895,"lo2":-89.0444,"dy":0.0017,"dx":0.0017,"nx":28,"ny":28,"refTime":"2024-06-29T21:00:00:Z","depth":0,"parameterNumber":3,"parameterNumberName":"V-component_of_WINDS"},"data":[0,0,0,0,0,0,0,0,0,0,0,0,0,0,0,0,0,0,0,0,0,0,0,0,0,0,0,0,0,0,0,0,0,0,0,0,0,0,0,0,0,0,0,0,0,0,0,0,0,0,0,0,0,0,0,0,0,0,5.3381,5.3381,0,5.3381,5.3381,5.3381,5.3296,5.3294,5.3292,5.329,5.3288,5.329,5.3292,0,0,0,0,0,0,0,0,0,0,0,0,0,5.3307,5.3309,5.3381,5.3381,5.3381,5.3381,5.3381,5.3381,5.3297,5.3294,5.3291,5.3289,5.3288,5.329,5.3292,0,0,0,0,0,0,0,0,0,0,0,0,0,5.3327,5.331,5.3381,5.3339,5.3335,5.3381,5.3381,5.3381,5.3297,5.3294,5.3291,5.3287,5.3287,5.329,5.3293,5.3378,0,0,5.3302,5.3303,0,0,0,0,0,0,0,0,5.3326,5.3329,5.3345,5.3342,5.3338,5.3335,5.3354,5.338,5.3298,5.3312,5.329,5.3286,5.3306,5.3308,5.3315,5.3378,5.3378,5.3302,5.3304,5.3305,5.3306,0,0,0,0,0,0,0,5.3324,5.3329,5.3381,5.3346,5.3341,5.332,5.3319,5.3359,5.3328,5.331,5.3304,5.3305,5.3304,5.3312,5.3314,5.3378,5.3302,5.3305,5.3307,5.3308,5.3511,5.3514,0,0,0,0,0,0,5.3329,5.3328,5.3381,5.3381,5.3324,5.3324,5.3323,5.334,5.3327,5.3322,5.3308,5.3301,5.3309,5.3311,5.3314,5.3412,5.3305,5.3308,5.331,5.3507,5.3511,5.3515,0,0,0,0,0,0,5.3328,5.3335,5.3381,5.3353,5.3357,5.3329,5.3348,5.3341,5.3349,5.3326,5.3319,5.3322,5.3306,5.331,5.3363,5.3411,5.331,5.3312,5.3503,5.3508,5.3513,5.361,0,0,0,0,0,0,5.3326,5.3335,5.3367,5.3354,5.3359,5.3431,5.3351,5.3344,5.3355,5.3346,5.3337,5.3333,5.3304,5.3359,5.3366,5.3413,5.3315,5.3498,5.3505,5.3512,5.3602,5.3618,5.3631,0,0,0,0,0,5.3324,5.3394,5.3369,5.3376,5.3399,5.3433,5.3436,5.3402,5.3359,5.3391,5.3376,5.3333,5.3405,5.3365,5.3372,5.3421,5.3495,5.3503,5.3511,5.3596,5.3615,5.3631,0,0,0,0,0,0,5.3412,5.3391,5.3363,5.3432,5.3435,5.3419,5.3458,5.3423,5.3438,5.3429,5.3386,5.3384,5.3444,5.3438,5.3394,5.3503,5.3442,5.3452,5.3504,5.3522,5.3537,5.3536,5.3317,0,0,0,0,0,5.344,5.347,5.345,5.3512,5.3516,5.3487,5.3501,5.3474,5.3475,5.3476,5.3465,5.3467,5.349,5.3506,5.3526,5.3602,5.3598,5.3639,5.3654,5.3666,5.3674,5.3713,5.3731,5.3542,5.3542,5.3541,0,0,5.3497,5.3489,5.3511,5.353,5.3529,5.3561,5.3489,5.3525,5.3548,5.3481,5.353,5.3523,5.3523,5.3587,5.3615,5.3584,5.3726,5.3676,5.3686,5.3688,5.3723,5.3741,5.3757,5.3547,5.3546,5.3545,0,0,5.3616,5.3614,5.3665,5.3666,5.3667,5.3647,5.366,5.365,5.3642,5.3691,5.3642,5.3668,5.3709,5.3711,5.3717,5.3839,5.3799,5.3847,5.3922,5.396,5.3975,5.3988,5.403,5.4046,5.3856,5.3856,5.3856,0,5.3686,5.3732,5.3696,5.3736,5.3745,5.3688,5.3739,5.3742,5.3749,5.3757,5.3722,5.3772,5.3768,5.3832,5.3862,5.387,5.3882,5.3847,5.3976,5.3989,5.4,5.404,5.4056,5.3862,5.3861,5.386,5.386,0,5.3818,5.3851,5.3892,5.3901,5.3915,5.3961,5.3931,5.395,5.3923,5.3907,5.3958,5.3952,5.3969,5.3983,5.3956,5.4043,5.4024,5.3984,5.3921,5.4025,5.4061,5.4076,5.387,5.3868,5.3866,5.3865,0,0,5.3991,5.398,5.3995,5.3998,5.3995,5.4019,5.4062,5.408,5.4097,5.4104,5.4138,5.4175,5.4138,5.4145,5.4119,5.4153,5.4248,5.4108,5.4108,5.4133,5.4342,5.4371,5.4389,5.4223,5.4226,5.4228,5.4342,0,5.4105,5.4178,5.4147,5.4222,5.4252,5.4199,5.4236,5.4238,5.4225,5.4248,5.4233,5.4259,5.4209,5.4213,5.4245,5.423,5.4289,5.4222,5.4253,5.4255,5.4253,5.4408,5.4439,5.4546,5.4356,5.4358,5.436,0,5.4248,5.4261,5.434,5.4331,5.4342,5.4377,5.439,5.4413,5.4414,5.4402,5.4412,5.4378,5.4419,5.4359,5.4415,5.4369,5.4381,5.4376,5.4379,5.4379,5.4312,5.4411,5.458,5.4595,5.4382,5.4381,5.4379,0,5.4364,5.4402,5.4453,5.4458,5.445,5.4475,5.4473,5.4471,5.4484,5.4496,5.4503,5.4521,5.4529,5.4543,5.4515,5.4474,5.4574,5.4512,5.4564,5.4565,5.4586,5.4585,5.4757,5.4597,5.4597,5.4597,5.4596,0,5.4493,5.4543,5.4506,5.4537,5.4591,5.4556,5.461,5.4602,5.4601,5.463,5.4586,5.4614,5.4575,5.46,5.4578,5.4627,5.4631,5.4622,5.4616,5.4625,5.4626,5.463,5.4622,5.4601,5.46,5.4599,5.4598,0,5.4631,5.4608,5.4661,5.465,5.4648,5.4688,5.4678,5.4707,5.4692,5.4728,5.4735,5.4711,5.4737,5.4711,5.4735,5.4721,5.4786,5.4769,5.4786,5.478,5.4833,5.4828,5.5013,5.5035,5.4863,5.4864,5.4866,0,5.4714,5.4752,5.4745,5.4761,5.4762,5.4789,5.4802,5.4769,5.4784,5.4789,5.4817,5.4839,5.4855,5.49,5.4884,5.4903,5.4885,5.4949,5.4887,5.4896,5.4884,5.4881,5.4884,5.496,5.4962,5.4964,5.4965,0,5.4864,5.4851,5.4872,5.4889,5.4906,5.4918,5.4926,5.4942,5.4908,5.4927,5.4954,5.4966,5.4992,5.5014,5.5029,5.5026,5.499,5.4985,5.4998,5.5007,5.5015,5.501,5.4818,5.4981,5.4979,5.4978,5.4977,5.4977,5.4976,5.5006,5.5006,5.5031,5.5034,5.5043,5.5069,5.5057,5.5079,5.5097,5.5077,5.5109,5.511,5.5125,5.5127,5.5151,5.5124,5.5143,5.5147,5.5152,5.5159,5.5013,5.5154,5.5153,5.5153,5.5153,5.5152,0,5.5122,5.512,5.5143,5.5156,5.5175,5.5141,5.5149,5.5167,5.5196,5.52,5.5217,5.5248,5.527,5.5257,5.5276,5.5298,5.5282,5.5304,5.5301,5.5301,5.5183,5.5169,5.5316,5.5316,5.5316,5.5316,5.5316,5.5316,5.52,5.5249,5.5237,5.5287,5.5284,5.5316,5.5323,5.5331,5.5334,5.537,5.5388,5.538,5.5377,5.5395,5.5414,5.541,5.5418,5.5446,5.5435,5.5325,5.5309,5.5294,5.528,5.5448,5.5448,5.555,5.5551,5.5552]}]]